Taba International, Egypt

11:50 PM EET on September 21, 2017 (GMT +0200)
Taba International

Weather History for HETB - November, 2012

Change the Weather History Date:

Wednesday, November 28, 2012

  Actual Average Record
Temperature  
Mean Temperature 58 °F -  
Max Temperature 71 °F - - ()
Min Temperature 46 °F - - ()
Degree Days  
Heating Degree Days 6    
Growing Degree Days 8 (Base 50)    
Moisture  
Dew Point 37 °F    
Average Humidity 52    
Maximum Humidity 94    
Minimum Humidity 23    
Precipitation  
Precipitation 0.00 in - - ()
Sea Level Pressure  
Sea Level Pressure 30.12 in    
Wind  
Wind Speed 0 mph ()    
Max Wind Speed 2 mph    
Max Gust Speed -    
T = Trace of Precipitation, MM = Missing Value Source: Averaged Metar Reports

Daily Weather History Graph

Daily Weather History Graph

Search for Another Location

Airport or City:

Trip Planner

Search our weather history database for the weather conditions in past years. The results will help you decide how hot, cold, wet, or windy it might be!

Date:

Astronomy

Nov. 28, 2012 Rise Set
Actual Time 6:15 AM EET 4:41 PM EET
Civil Twilight 5:50 AM EET 5:07 PM EET
Nautical Twilight 5:20 AM EET 5:36 PM EET
Astronomical Twilight 4:52 AM EET 6:05 PM EET
Moon 4:41 PM EET (11/28) 5:56 AM EET (11/28)
Length of Visible Light 11h 17m
Length of Day
10h 25m
Full, 100% of the Moon is Illuminated
Nov 28
Full
Nov 28
Full
Dec 6
Last Quarter
Dec 13
New
Dec 20
First Quarter

Hourly Weather History & Observations

Time (EET) Temp. Dew Point Humidity Pressure Visibility Wind Dir Wind Speed Gust Speed Precip Events Conditions
12:00 AM 51.8 °F 39.2 °F 62% 30.12 in - Calm Calm - N/A   Clear
1:00 AM 50.0 °F 39.2 °F 66% 30.12 in - Calm Calm - N/A   Clear
2:00 AM 48.2 °F 39.2 °F 71% 30.12 in - Calm Calm - N/A   Clear
3:00 AM 48.2 °F 41.0 °F 76% 30.12 in - Calm Calm - N/A   Clear
4:00 AM 46.4 °F 41.0 °F 81% 30.12 in - West 2.3 mph - N/A   Clear
5:00 AM 46.4 °F 42.8 °F 87% 30.12 in - Calm Calm - N/A   Clear
6:00 AM 46.4 °F 44.6 °F 93% 30.12 in - Calm Calm - N/A   Clear
7:00 AM 46.4 °F 44.6 °F 93% 30.15 in - Calm Calm - N/A   Clear
8:00 AM 50.0 °F 48.2 °F 94% 30.15 in - Calm Calm - N/A   Clear
9:00 AM 64.4 °F 33.8 °F 32% 30.15 in - Calm Calm - N/A   Clear
10:00 AM 64.4 °F 33.8 °F 32% 30.15 in - Calm Calm - N/A   Clear
11:00 AM 66.2 °F 32.0 °F 28% 30.15 in - Calm Calm - N/A   Clear
12:00 PM 68.0 °F 32.0 °F 26% 30.12 in - Calm Calm - N/A   Clear
1:00 PM 69.8 °F 32.0 °F 25% 30.09 in - Calm Calm - N/A   Clear
2:00 PM 71.6 °F 32.0 °F 23% 30.09 in - Calm Calm - N/A   Clear
3:00 PM 71.6 °F 32.0 °F 23% 30.09 in - Calm Calm - N/A   Clear
4:00 PM 69.8 °F 32.0 °F 25% 30.09 in - Calm Calm - N/A   Clear
5:00 PM 66.2 °F 32.0 °F 28% 30.09 in - Calm Calm - N/A   Clear
7:00 PM 60.8 °F 33.8 °F 36% 30.12 in - Calm Calm - N/A   Clear
8:00 PM 57.2 °F 32.0 °F 38% 30.12 in - Calm Calm - N/A   Clear
9:00 PM 53.6 °F 37.4 °F 54% 30.12 in - Calm Calm - N/A   Clear
10:00 PM 53.6 °F 37.4 °F 54% 30.12 in - Calm Calm - N/A   Clear
11:00 PM 51.8 °F 37.4 °F 58% 30.12 in - Calm Calm - N/A   Clear